Theta_e
314 315 314 314 315 317 318 317 316 316 316 316 314 313 312 311 312 314 314 314 314 314 314 315 314 314 316 317 319 319 320 323 323 326 333 335 338 336 336 334 332 334 333 332 332 332 332 333 334 334 335 334 335 336 337 337 336 336 336 335 336 335 335 335 334 333 332 333 333 332 331 330 330 331 332 333 333 332 332 333 334 334 334 333 333 333
314 315 315 315 317 319 321 323 322 320 320 319 316 314 313 313 314 316 316 314 316 316 314 316 316 314 317 317 319 322 324 323 325 329 334 338 338 335 335 334 334 332 331 332 332 332 333 334 334 334 335 334 334 336 336 336 335 335 335 335 335 335 334 333 332 332 332 332 332 331 331 330 330 330 330 331 332 332 331 330 331 331 331 332 332 331
314 315 316 316 318 321 321 323 325 324 323 320 318 316 315 316 316 317 319 316 315 317 316 315 316 316 319 320 319 324 326 325 328 330 333 338 338 334 334 334 334 333 334 334 332 332 333 333 335 335 335 334 334 336 336 336 335 334 335 334 334 334 334 333 332 332 332 332 332 332 331 330 330 329 329 329 330 331 330 329 328 327 327 329 329 329
315 314 315 316 318 321 322 323 325 326 326 323 319 317 316 317 315 315 321 319 319 325 322 318 321 322 322 322 323 326 326 325 326 327 329 335 336 333 334 334 334 336 336 336 334 332 332 333 335 335 334 334 333 335 336 336 335 334 334 334 334 335 335 334 332 331 331 332 332 332 331 330 330 328 327 327 327 328 329 329 329 326 326 328 329 328
315 313 314 315 317 320 321 323 326 324 324 326 324 320 318 317 316 316 320 325 328 332 332 328 327 332 329 323 326 326 326 327 324 324 329 333 334 333 335 333 332 336 336 336 335 332 332 332 334 334 334 334 333 335 336 336 336 335 335 334 334 335 335 333 332 331 331 332 332 330 329 329 328 327 326 327 327 327 327 327 328 327 327 328 328 326
313 315 318 316 315 317 317 321 327 324 321 324 326 324 321 319 318 318 318 322 323 322 328 326 320 330 335 323 324 326 326 328 324 326 330 333 335 333 335 334 333 334 335 335 334 333 332 331 333 334 334 334 333 334 335 335 335 334 334 335 335 335 335 333 331 330 332 331 330 328 327 326 325 325 326 327 327 326 326 326 324 324 326 327 326 324
312 316 319 319 318 318 316 319 325 325 321 320 322 322 321 319 318 320 318 316 316 318 326 324 318 325 330 321 322 326 327 329 330 333 334 335 334 333 333 333 333 334 335 336 335 334 333 331 332 332 333 334 333 333 334 334 334 334 334 335 335 335 335 332 330 331 332 330 329 328 326 324 324 325 325 325 325 325 326 326 324 324 325 325 324 324
315 316 318 321 322 320 320 321 323 324 320 319 321 319 317 317 316 319 318 315 319 323 325 323 320 321 321 322 325 326 327 330 333 333 336 336 335 335 334 332 333 334 335 335 335 336 334 331 331 332 332 333 332 333 333 333 333 334 334 335 335 335 333 330 330 332 331 330 330 328 325 324 324 324 324 324 325 326 326 325 324 324 323 322 321 322
319 319 320 321 321 320 320 321 323 322 318 318 321 318 316 315 316 318 316 316 322 324 320 320 321 319 319 326 326 325 325 328 333 336 336 335 335 336 336 334 333 333 333 334 335 336 334 331 331 331 332 333 332 333 333 333 333 334 335 335 334 334 331 330 332 333 331 330 329 326 325 326 325 324 324 325 326 326 325 324 324 323 322 321 319 319
320 320 319 318 319 319 318 319 320 319 318 319 318 317 316 315 317 317 315 317 320 321 321 322 320 318 323 332 326 322 324 326 333 337 336 333 334 335 336 334 333 334 333 333 335 335 334 332 331 332 332 332 332 332 333 333 333 334 335 335 334 331 329 331 332 332 331 329 327 326 327 327 324 324 325 325 325 325 325 324 323 322 320 320 319 319
317 319 319 317 317 318 318 319 318 316 317 318 317 316 315 316 320 318 319 323 321 320 324 325 320 317 324 335 328 322 327 330 334 335 335 334 334 335 335 333 332 333 333 333 335 335 334 333 332 332 332 332 333 333 333 334 333 334 335 334 332 329 329 331 332 332 330 329 328 328 328 326 324 325 325 324 324 325 325 324 322 321 319 320 320 320
314 316 318 316 316 316 317 316 315 316 315 315 317 316 314 318 319 316 316 319 320 323 323 319 317 316 320 329 329 328 332 330 332 334 335 334 335 335 334 333 334 334 333 333 335 335 335 334 333 332 332 332 333 334 334 334 334 335 335 333 331 330 331 331 331 331 331 330 330 329 328 326 325 324 324 324 324 324 324 323 322 320 319 319 320 320
316 316 316 316 317 315 315 315 314 316 315 315 316 316 317 319 319 317 317 318 322 327 324 317 316 320 324 326 329 332 332 330 331 333 334 334 334 334 333 333 335 336 335 334 334 335 335 335 335 333 332 333 333 334 334 334 334 335 335 333 332 331 331 330 331 331 330 329 330 329 328 326 325 324 324 324 324 323 322 322 322 320 319 318 318 318
315 316 313 315 317 315 315 314 313 318 319 316 316 317 319 321 321 321 320 320 322 323 322 318 317 323 328 328 331 334 331 331 332 331 333 334 333 334 333 333 335 337 336 335 335 335 334 335 335 334 333 334 333 333 334 334 334 334 333 333 332 331 331 331 332 332 330 329 329 328 327 324 324 324 324 324 324 323 322 322 321 320 318 318 317 318
316 317 316 315 316 316 316 314 315 321 320 317 317 318 320 322 322 322 321 321 322 324 326 322 318 323 330 331 331 332 331 331 332 332 334 334 333 334 333 333 337 336 333 332 333 335 335 334 335 335 334 334 333 333 333 333 333 333 332 332 331 330 331 331 332 331 329 328 328 328 327 324 324 324 323 324 324 323 323 322 320 319 318 318 318 319
313 317 319 314 315 317 315 315 316 316 318 324 320 312 317 323 324 325 328 325 321 325 328 326 323 327 334 335 331 331 331 331 333 335 337 337 336 336 336 337 335 331 328 328 330 335 336 333 333 335 335 335 334 333 333 333 333 333 331 331 331 330 330 331 331 329 327 327 328 328 327 324 324 324 324 324 323 323 323 321 320 319 318 318 319 319
312 319 321 312 314 316 313 317 315 311 322 332 322 313 319 325 323 325 329 326 323 324 324 326 330 330 333 334 330 331 332 331 333 336 337 339 339 337 337 337 331 328 329 329 330 334 333 330 331 334 334 334 333 332 332 333 333 333 331 331 332 330 330 331 329 327 326 327 328 328 326 325 324 324 324 323 324 323 322 321 320 319 318 318 319 318
316 320 324 314 314 316 313 317 316 312 322 325 318 318 322 323 325 328 328 327 327 325 323 327 330 330 333 334 330 331 334 333 333 335 337 337 337 336 336 334 331 329 329 329 330 331 330 329 330 331 330 329 328 329 331 332 333 333 332 332 332 331 331 331 329 327 327 327 329 328 326 325 324 324 324 324 323 322 321 321 320 319 319 319 318 318
317 316 321 318 315 318 315 314 315 315 317 318 320 322 325 329 334 332 328 328 328 326 327 330 329 330 333 332 332 334 334 335 335 333 335 335 334 334 335 335 332 330 330 330 330 330 329 328 328 328 327 327 326 327 330 329 329 332 333 332 332 332 331 331 329 329 329 329 329 328 326 325 324 323 324 324 322 321 320 321 320 319 319 319 318 318
321 319 322 322 316 318 318 315 316 317 315 316 319 318 323 333 335 329 325 326 329 331 332 331 333 339 337 330 332 335 332 333 335 333 334 334 333 333 333 333 331 331 331 330 328 329 328 327 327 327 326 327 326 326 327 326 325 329 331 330 331 332 332 331 330 330 330 331 330 328 327 327 325 324 324 323 321 320 321 321 320 319 319 319 319 318
323 322 326 328 319 318 322 321 317 317 316 314 315 316 318 324 326 326 325 320 321 329 331 331 335 341 339 331 330 333 332 332 333 333 335 334 333 332 332 331 331 331 332 329 328 328 327 327 327 326 326 327 326 326 326 325 324 326 328 327 328 330 330 330 330 330 331 331 329 328 329 328 326 325 324 323 321 321 322 321 320 319 319 319 319 319
326 324 328 330 321 318 322 321 317 317 317 315 316 318 318 319 322 326 328 324 321 321 323 329 335 334 332 331 331 331 332 332 331 332 333 333 333 333 331 331 330 331 333 331 328 326 326 327 326 326 327 326 326 326 326 326 325 325 326 326 326 327 328 329 329 330 331 331 330 329 329 328 327 326 324 323 321 321 323 322 320 320 319 319 320 320
328 325 323 324 320 318 319 318 318 318 317 317 318 320 320 323 324 325 330 334 329 324 324 331 336 333 329 330 332 331 331 332 331 331 332 332 333 333 332 331 331 331 332 331 329 327 326 327 327 328 328 327 327 327 325 326 325 324 325 326 325 325 327 328 328 328 327 326 328 329 329 328 326 326 325 325 322 322 323 322 321 320 319 320 321 321
327 325 323 324 326 327 322 319 319 318 319 322 321 321 323 324 324 326 332 335 330 330 336 338 334 331 329 331 331 330 329 330 329 330 330 330 330 329 328 328 329 330 331 330 328 327 327 327 327 328 328 328 328 327 326 326 325 325 326 326 326 326 327 327 326 325 324 323 325 328 329 328 326 324 324 323 321 322 323 322 322 321 319 320 320 320
323 325 328 328 332 337 332 325 326 323 321 324 323 322 324 325 329 334 335 333 329 327 334 336 332 329 329 329 328 327 327 327 327 327 327 327 328 327 327 326 326 326 328 329 328 326 327 328 328 328 327 327 328 327 327 326 326 326 327 326 326 326 325 325 325 324 323 323 324 326 326 326 326 325 322 319 317 319 321 321 321 321 319 319 320 320
326 326 324 324 331 337 334 332 334 329 323 323 323 322 323 326 332 337 333 328 325 325 329 333 332 331 329 328 328 327 327 327 327 327 326 326 328 329 329 329 328 327 326 328 330 328 327 326 326 326 327 327 327 327 327 327 327 327 327 326 326 326 325 325 326 325 324 323 322 323 323 324 325 325 321 319 319 319 319 318 320 320 319 319 320 320
326 326 324 323 325 329 331 333 332 326 324 324 322 321 324 326 329 336 339 333 327 330 335 331 329 331 330 329 329 326 326 327 326 326 326 325 326 326 326 326 328 328 326 326 329 330 328 327 325 324 325 327 327 327 327 328 328 328 328 327 326 326 325 325 325 325 325 324 320 319 323 326 326 325 322 321 322 322 320 318 318 319 319 320 320 320
325 324 328 327 322 321 323 325 323 321 323 323 321 321 324 325 328 334 339 336 330 334 338 330 327 331 331 329 328 325 326 327 326 326 326 325 325 325 325 325 326 326 325 324 324 324 324 325 324 323 324 326 326 326 326 327 328 328 328 327 327 327 325 325 325 325 325 324 321 320 324 325 326 325 323 322 323 323 323 321 318 318 319 321 321 321
324 324 328 327 323 320 319 320 321 321 322 321 321 322 322 323 327 329 330 330 332 335 336 330 328 330 329 326 324 323 324 323 322 322 322 322 324 324 324 325 326 325 324 323 322 321 321 323 323 322 323 324 324 325 326 326 327 327 327 327 327 326 325 324 324 323 323 324 324 325 324 323 324 324 322 322 323 324 325 324 321 320 320 321 321 321
323 326 328 325 324 322 317 318 319 319 320 320 320 321 320 320 323 324 324 327 329 331 330 327 325 324 321 318 317 316 316 314 313 313 313 315 316 316 316 317 318 319 319 319 318 316 316 317 318 318 320 321 323 325 325 325 325 326 326 326 326 325 324 323 323 323 322 323 325 326 325 323 323 324 322 322 323 323 324 324 323 322 321 321 321 321
323 326 325 324 328 327 319 317 318 320 323 323 321 321 321 321 322 322 322 323 326 327 326 323 321 319 317 314 313 312 310 309 308 307 307 308 309 309 309 310 310 310 311 311 310 310 309 310 310 311 312 313 316 319 322 324 325 325 325 325 325 325 324 323 323 322 322 323 324 324 324 323 323 323 323 323 324 323 323 324 323 322 321 321 321 321
328 326 321 322 329 328 322 320 320 322 324 324 324 323 322 322 323 322 320 321 323 323 321 320 320 320 317 314 311 310 308 307 307 306 305 305 306 307 307 307 307 307 307 307 306 306 306 306 307 307 307 308 309 310 313 317 319 321 324 324 324 324 324 323 323 322 322 323 323 322 322 321 322 323 323 324 324 323 323 323 323 322 322 321 321 321
329 328 324 322 324 323 321 321 322 325 328 325 323 323 320 321 321 319 319 321 321 321 320 321 321 319 316 314 312 311 309 308 307 306 305 304 304 305 305 305 305 304 305 305 304 305 305 306 306 306 306 306 307 306 308 311 312 314 319 323 324 323 323 323 323 322 322 322 322 322 322 322 322 323 323 324 324 322 322 323 323 322 322 322 322 321
324 327 327 323 321 321 320 322 324 327 327 322 320 320 319 319 318 318 319 319 319 319 319 318 316 315 314 313 311 310 309 308 307 306 305 305 305 304 305 305 304 303 303 303 303 304 305 305 305 305 305 305 305 306 307 309 309 310 313 318 322 323 323 323 322 322 322 322 322 322 322 322 323 322 322 323 322 322 322 322 322 322 322 322 322 322
323 326 326 322 322 322 321 324 325 324 321 320 319 317 317 317 317 317 317 316 315 315 314 312 311 311 311 310 308 307 307 306 305 305 304 305 305 304 304 304 304 304 303 303 303 303 304 304 304 304 304 304 304 305 307 307 308 309 309 310 313 316 318 320 320 321 322 321 321 321 321 321 321 321 322 322 322 322 322 322 321 322 322 321 322 322
324 324 323 321 322 323 322 324 325 321 318 318 317 314 314 317 317 318 318 316 315 313 311 310 309 309 309 308 306 305 305 304 304 304 304 304 304 304 304 304 304 304 303 303 303 303 303 303 303 304 304 304 304 304 305 306 306 308 308 308 308 308 309 311 312 314 316 316 318 319 320 320 320 321 321 322 323 323 322 322 322 321 321 321 321 320
323 322 322 321 321 323 323 322 321 320 317 317 314 311 311 313 313 317 319 316 314 313 310 308 308 308 307 306 305 305 305 305 305 304 303 303 303 303 304 303 303 303 303 303 303 303 303 303 304 304 305 305 304 304 304 305 305 306 307 307 307 307 306 306 306 306 308 309 310 313 315 317 320 320 321 322 323 322 321 322 322 321 321 320 320 320
321 322 322 322 320 321 323 320 319 320 319 315 313 311 311 311 311 314 318 316 314 313 311 309 308 308 307 306 305 306 306 306 307 306 304 303 302 302 302 301 302 303 303 303 303 303 303 303 304 304 304 304 304 304 304 305 304 304 305 306 306 306 306 306 305 304 305 306 307 308 309 311 314 316 317 320 321 321 321 321 321 321 321 320 320 320
321 324 324 325 321 319 322 321 319 318 316 313 311 311 312 313 312 314 317 317 314 312 312 311 310 309 309 307 308 308 307 307 308 307 305 304 303 303 302 302 303 304 304 304 304 303 303 303 303 303 303 303 302 301 302 303 303 303 304 304 305 305 305 304 303 303 304 305 306 307 307 307 308 310 312 314 316 317 319 319 319 319 319 319 318 318
321 323 324 323 319 317 319 319 316 315 314 312 311 311 311 313 315 317 318 317 314 312 312 313 313 313 312 310 310 309 307 306 306 305 304 304 303 303 303 303 303 303 303 303 303 304 304 303 302 302 302 302 302 301 301 302 303 303 303 304 303 303 303 303 302 302 302 304 305 306 307 307 307 308 308 310 310 312 314 315 316 316 318 318 317 316
317 316 318 318 317 316 317 315 314 313 312 311 310 309 310 314 318 318 317 316 314 312 311 310 311 311 309 308 307 306 305 305 304 304 304 303 302 302 302 301 301 301 300 300 300 301 302 301 301 301 302 302 302 301 301 302 302 302 302 302 303 302 302 302 302 302 302 302 303 304 304 305 305 306 307 308 308 309 311 312 312 313 315 315 315 315
314 313 315 316 316 316 315 314 313 313 311 310 311 309 309 314 316 315 314 314 312 310 308 307 307 307 306 305 305 304 304 303 303 302 302 302 302 301 300 300 300 300 299 298 298 299 300 300 300 300 300 301 301 301 301 301 301 301 301 302 302 302 302 302 302 302 302 302 302 302 302 302 303 304 306 306 307 308 309 309 311 311 312 311 312 313
313 313 315 314 313 314 315 313 313 312 309 308 311 310 309 312 313 311 310 310 308 306 306 305 305 305 305 304 304 304 303 303 302 302 302 302 301 300 299 299 299 299 299 298 297 298 299 299 299 299 299 299 300 300 300 300 300 301 301 301 301 301 301 301 301 301 302 302 302 302 302 302 303 303 303 304 305 306 306 307 308 310 311 311 311 311
311 313 314 312 311 313 314 312 310 309 307 306 308 308 307 308 309 308 307 307 306 305 305 305 305 305 304 304 303 303 303 303 303 302 302 302 301 299 298 299 299 299 299 298 298 298 298 298 299 299 299 299 299 299 299 299 300 300 300 300 300 300 300 300 300 301 301 301 301 301 302 302 302 302 302 302 303 303 303 304 306 307 309 310 311 312
310 310 311 310 309 310 311 309 308 306 305 305 306 306 305 306 306 305 305 305 305 305 304 304 305 305 304 303 303 303 302 303 303 303 302 302 301 299 298 298 298 299 299 298 298 298 298 298 299 299 299 299 299 299 299 299 299 299 299 299 299 299 299 299 299 299 299 299 300 300 300 300 301 301 302 302 302 302 302 302 303 304 306 308 310 311
308 308 308 309 308 308 308 307 306 305 305 305 305 305 305 305 304 304 304 304 304 303 303 303 303 303 302 302 302 302 302 303 302 302 303 302 300 299 299 299 299 298 298 298 298 298 298 298 298 298 299 299 299 299 299 299 298 298 298 298 298 298 298 298 298 298 298 298 298 298 298 299 299 300 300 300 301 301 301 301 301 302 303 305 308 310
307 309 309 309 308 308 308 307 305 305 305 304 304 304 303 303 303 303 303 302 302 303 303 303 302 302 301 302 302 302 302 303 302 302 303 303 300 298 298 299 298 298 298 298 298 297 298 298 298 298 299 299 299 299 299 298 298 298 298 298 298 297 297 297 297 297 297 297 297 297 298 298 298 298 299 299 300 300 300 300 300 300 301 302 304 307
305 308 309 308 308 308 308 307 305 305 305 304 304 303 302 302 302 302 303 303 303 303 303 302 302 301 301 302 303 303 303 303 302 301 302 301 299 297 298 298 297 297 297 297 297 297 298 298 298 298 298 298 298 298 298 298 297 297 297 297 296 296 296 296 296 296 296 296 296 297 297 297 297 297 297 298 299 299 300 300 300 300 300 300 301 302
305 308 309 307 307 307 306 305 305 305 304 304 304 303 303 303 302 302 303 303 302 302 302 301 301 300 300 301 301 302 303 302 300 300 300 299 297 297 297 297 296 296 297 297 298 298 298 298 298 298 297 297 297 297 297 296 296 296 296 296 295 295 295 295 295 295 296 296 296 296 296 296 295 296 296 297 298 298 299 300 300 300 301 301 301 301
306 307 307 307 307 307 306 305 305 305 304 303 303 303 304 304 303 303 302 302 301 301 302 301 300 299 299 299 299 300 302 301 299 298 298 297 296 296 296 296 296 296 297 297 297 297 297 297 297 297 297 296 296 296 296 296 296 295 295 295 295 295 294 294 294 294 294 295 295 294 294 294 294 295 295 296 297 297 298 299 299 300 301 301 302 302
305 305 306 307 308 307 305 304 304 304 303 303 303 303 303 303 303 302 301 302 302 300 299 301 301 300 300 299 298 298 299 299 298 297 296 296 296 296 296 296 296 296 297 297 297 296 297 297 296 296 296 296 296 296 295 295 295 295 295 294 294 294 294 294 294 293 293 294 294 293 293 293 293 294 294 295 295 296 297 298 299 299 300 300 301 302
Wind_Speed
5 4 5 6 6 7 9 10 11 11 10 11 10 7 8 6 6 10 13 14 10 10 13 11 12 14 11 10 11 9 9 6 8 11 9 11 11 9 14 16 16 16 13 15 19 23 26 28 28 28 28 24 24 28 30 30 30 31 33 31 30 28 26 25 24 22 22 23 22 22 21 20 21 21 21 20 17 18 18 16 15 14 12 11 11 11
5 6 6 8 9 10 11 10 12 12 11 10 7 7 8 7 7 11 15 16 10 8 10 10 11 13 11 11 11 7 6 3 6 8 10 14 11 12 17 17 16 13 12 13 15 20 26 28 29 29 27 23 28 31 32 32 30 31 32 31 31 29 27 26 25 24 24 23 22 23 23 21 20 20 21 21 20 20 18 15 15 14 13 12 13 13
5 6 9 10 10 10 11 11 10 11 11 8 6 5 6 6 6 11 16 14 8 6 8 11 10 10 10 11 10 7 9 8 8 9 12 14 12 14 16 15 15 14 14 14 13 16 22 25 27 29 27 25 29 31 30 31 31 33 33 31 31 29 28 27 26 26 25 22 21 22 23 23 21 20 21 21 21 20 18 15 14 15 16 16 15 14
4 8 12 12 10 10 11 11 7 4 5 5 5 5 5 7 5 6 10 6 3 5 5 8 5 4 5 6 6 6 8 8 8 8 11 12 15 16 16 16 16 16 16 15 12 12 17 21 23 26 27 25 27 29 30 32 33 33 34 33 31 29 28 28 28 26 24 20 20 22 23 24 24 22 20 18 18 18 18 16 14 14 16 17 16 14
9 11 11 11 12 11 10 10 7 3 3 3 5 5 5 9 7 4 8 9 5 4 6 7 3 4 2 3 6 4 4 5 7 11 16 15 15 15 15 15 14 15 16 15 13 11 12 16 20 24 26 26 28 30 31 33 33 33 34 34 32 30 29 30 29 25 21 20 23 27 27 27 27 24 21 20 18 18 17 16 14 13 14 16 16 13
12 11 9 12 13 13 12 10 6 5 2 3 4 6 7 11 9 7 9 8 6 4 2 6 4 5 5 3 6 5 3 6 5 12 18 16 14 14 12 12 11 12 14 15 15 15 14 16 20 23 25 25 26 27 29 30 31 32 33 32 31 30 30 30 27 24 25 27 31 34 32 30 28 25 24 23 22 20 17 15 14 14 16 18 17 13
9 11 9 12 13 13 13 8 4 5 2 3 4 6 9 12 8 7 8 5 0 3 2 4 5 4 6 5 8 4 6 8 9 15 18 15 13 12 11 10 10 11 11 12 13 14 13 16 18 19 21 22 22 24 25 26 28 30 31 30 31 31 31 30 28 26 29 32 33 33 31 29 28 26 24 22 22 20 18 17 16 15 16 17 17 15
8 12 10 8 8 7 6 4 4 6 4 4 4 7 11 11 9 7 5 5 3 3 1 2 6 2 3 6 8 4 7 9 15 16 15 14 13 11 11 11 10 10 10 10 11 11 11 14 17 17 19 21 22 23 23 23 25 28 29 30 31 33 33 31 28 28 30 30 29 29 29 28 26 25 24 24 23 20 19 18 16 14 14 14 14 14
9 11 9 7 4 2 3 5 6 6 5 5 6 9 10 10 10 6 5 5 2 3 3 2 5 2 3 6 7 4 7 9 14 15 13 14 14 11 11 11 10 11 10 10 11 10 9 13 17 20 22 21 21 21 21 21 23 24 26 27 30 33 33 30 28 28 27 26 27 28 28 27 25 25 26 25 24 20 19 18 16 14 14 14 14 12
5 8 9 7 4 3 3 4 6 6 6 6 7 9 8 8 9 7 5 4 1 3 4 5 3 2 4 5 5 3 7 9 11 11 13 14 13 11 11 11 11 11 10 9 10 10 10 14 18 21 23 21 19 19 19 20 21 22 22 24 28 31 31 29 29 29 27 26 28 28 28 28 29 27 26 25 23 20 19 19 19 18 18 17 16 14
6 4 8 7 5 5 5 5 7 8 8 7 6 6 7 7 6 5 4 3 3 1 5 5 3 2 3 5 3 3 5 8 12 9 10 11 11 10 9 9 10 9 10 10 9 8 11 14 17 20 21 20 19 18 18 20 23 23 22 24 27 29 29 29 29 29 28 27 26 27 29 31 31 28 27 25 23 21 21 21 21 20 19 18 18 18
9 6 4 3 1 4 5 6 7 9 10 7 5 4 3 5 4 4 1 3 3 3 5 6 6 4 3 4 3 4 6 6 15 13 12 11 9 8 7 8 8 8 10 11 9 9 9 10 13 17 19 19 19 18 18 20 23 23 24 26 28 28 28 29 29 28 28 26 24 27 30 31 30 28 28 26 24 23 22 22 21 20 19 18 17 18
7 6 3 2 0 1 4 4 5 7 6 6 5 4 2 2 3 2 2 2 4 4 5 7 7 4 4 1 4 7 10 8 12 15 15 14 10 9 9 9 6 6 10 10 9 8 7 6 9 14 17 19 19 19 18 20 21 21 22 24 27 28 29 30 28 27 27 26 25 28 29 28 28 29 28 26 24 22 21 21 22 20 19 19 18 17
4 5 4 4 3 4 5 4 3 4 2 4 5 5 4 2 1 2 3 2 2 3 6 8 7 4 2 2 7 8 10 10 11 13 14 14 12 11 10 10 8 6 8 8 8 8 6 6 8 12 15 16 18 18 17 17 17 18 19 21 23 25 26 27 25 24 24 23 25 27 27 27 28 28 27 26 23 21 22 23 22 20 20 20 19 19
4 5 5 5 4 6 7 6 5 4 2 4 4 5 4 4 4 3 2 2 3 3 4 4 4 2 2 1 4 8 11 12 11 9 10 10 9 9 10 10 9 7 7 8 6 4 5 8 9 11 12 13 14 14 12 12 12 14 16 19 21 22 20 21 21 20 19 21 22 22 24 26 26 25 25 24 23 21 22 22 20 20 20 20 19 19
3 4 7 10 8 8 9 7 6 3 2 3 2 3 4 5 5 3 2 4 4 1 3 1 0 1 2 2 3 8 11 12 11 9 8 8 8 10 10 8 9 9 9 10 8 4 6 9 10 12 13 13 13 11 9 10 11 13 17 18 19 19 19 19 20 20 19 20 19 18 21 24 23 22 23 23 22 20 20 20 20 20 21 20 20 19
3 4 5 9 11 10 9 8 7 4 1 2 1 3 6 5 7 4 2 1 4 3 2 1 3 2 1 3 3 7 10 10 10 9 8 8 9 10 8 7 8 8 8 10 11 9 6 7 9 12 14 15 18 13 9 12 15 18 21 21 18 18 20 20 19 19 20 20 17 16 20 21 21 22 22 22 22 20 19 19 20 21 21 20 20 19
3 5 5 2 6 8 8 9 8 6 6 2 2 5 3 2 4 4 2 2 4 2 3 2 6 3 2 3 2 6 8 7 7 8 8 7 8 8 7 6 7 8 7 8 8 7 5 6 8 9 9 14 21 20 16 14 15 19 21 19 18 20 20 20 19 18 18 16 14 16 18 19 20 21 21 21 20 20 20 20 21 21 21 20 19 19
3 3 6 3 1 4 4 7 7 6 6 6 4 3 1 3 1 1 3 2 1 2 2 2 3 2 1 1 2 4 5 5 6 6 7 7 6 7 6 6 7 7 7 6 6 5 4 7 8 8 7 10 15 19 20 14 11 18 20 15 15 18 19 19 18 16 15 11 11 16 17 17 18 20 20 20 20 21 20 21 21 21 21 20 19 19
1 2 4 6 1 1 3 3 4 4 4 6 4 2 2 3 3 1 2 3 3 2 2 2 2 1 2 2 1 6 7 8 7 6 6 6 6 5 5 6 6 7 7 6 6 5 4 7 10 9 7 7 9 10 15 15 12 15 19 15 15 16 16 17 18 16 14 11 12 17 16 13 16 20 21 20 21 21 20 20 21 21 20 20 19 19
3 2 3 6 3 3 2 2 1 2 2 3 3 2 2 2 3 2 1 2 3 3 2 1 1 3 4 5 3 9 8 7 8 7 6 5 6 5 4 4 5 6 7 7 6 6 5 8 10 9 8 9 10 8 9 13 12 11 14 14 14 15 14 16 19 18 15 12 14 17 15 13 15 19 22 22 22 20 18 19 20 19 19 18 18 18
2 0 3 3 3 1 1 2 6 7 7 5 4 2 1 1 3 3 0 2 1 2 2 3 2 2 3 6 3 5 8 6 6 7 6 5 5 5 3 4 4 5 6 7 8 7 6 8 10 10 11 12 13 11 7 8 11 11 12 11 8 11 13 15 18 17 14 14 15 15 14 13 14 17 19 20 20 18 16 17 18 18 18 18 17 17
2 0 2 3 2 2 1 5 8 8 8 8 7 7 6 3 2 3 3 2 0 1 1 3 3 2 4 6 6 4 3 7 7 6 7 7 6 6 5 3 2 4 4 6 8 8 8 11 12 12 14 15 15 15 13 14 17 17 17 15 11 14 19 20 17 12 10 11 12 12 12 13 13 15 16 16 17 16 16 17 17 17 17 17 17 16
3 1 3 3 3 3 4 5 7 9 8 7 6 7 5 3 2 1 4 4 2 2 1 3 2 1 4 6 5 6 7 8 9 8 9 8 7 9 9 8 5 4 5 7 7 6 8 11 11 10 12 14 15 16 16 17 19 19 21 22 20 19 21 19 13 10 11 12 11 9 10 10 11 14 14 12 13 13 13 16 16 15 16 16 16 16
2 1 1 1 3 5 6 5 5 7 6 3 4 7 6 5 5 4 2 4 2 3 5 5 1 2 3 5 6 9 10 10 10 10 10 9 7 7 8 9 10 9 6 7 9 9 9 9 7 8 12 13 13 13 14 15 16 18 20 21 22 20 18 15 12 13 16 15 12 11 10 9 10 13 13 10 12 13 12 14 15 14 15 16 15 15
1 1 1 1 2 1 0 2 2 1 3 2 4 8 10 9 7 4 2 4 1 2 5 6 3 2 2 4 6 7 8 9 10 10 10 9 7 7 7 8 8 9 10 7 7 9 8 7 7 9 12 13 12 12 12 12 12 14 16 17 19 19 19 18 17 16 16 15 14 15 14 15 14 14 16 15 16 17 17 17 16 15 16 15 14 14
2 1 3 2 2 4 4 4 4 3 3 4 5 10 11 9 7 6 4 3 1 0 4 3 6 6 2 2 6 6 6 9 9 9 9 9 9 8 7 7 7 7 8 9 7 8 7 6 7 10 13 15 13 12 11 11 12 13 15 16 16 15 17 18 17 17 17 19 22 21 17 15 15 16 20 20 18 17 16 18 18 16 16 14 13 13
4 2 5 5 4 3 3 4 5 4 4 6 8 10 10 9 10 9 4 2 3 3 4 2 7 9 3 3 6 5 5 9 9 8 9 8 7 6 5 7 8 8 7 9 10 11 11 10 9 8 12 15 14 13 12 11 11 12 13 13 13 13 16 18 17 17 17 17 21 22 17 13 14 17 19 18 15 13 12 15 18 17 16 15 15 15
3 0 5 5 5 4 1 6 7 5 4 7 10 10 10 10 10 9 3 4 0 5 4 5 9 10 5 6 8 6 7 10 10 8 8 7 7 6 7 8 8 8 8 9 11 12 12 11 9 9 10 11 12 13 12 11 12 12 11 10 9 10 13 15 14 16 18 17 17 19 16 13 13 17 17 14 13 13 9 9 14 16 16 16 17 16
2 1 5 4 4 3 4 8 6 5 5 7 10 10 10 10 8 7 5 6 10 11 8 11 14 11 7 9 10 9 9 10 9 9 10 10 9 10 11 11 10 11 11 10 11 11 11 10 10 13 13 8 7 9 9 10 11 11 10 9 7 7 9 11 11 14 17 16 13 12 13 14 14 16 19 18 16 16 14 12 14 16 16 15 16 17
3 1 5 4 3 3 5 8 6 7 6 6 8 8 9 9 7 6 5 6 10 10 9 13 15 8 5 8 10 10 10 11 12 12 11 9 9 12 14 13 12 13 13 12 12 11 11 12 14 18 19 16 14 11 7 6 8 10 12 11 9 8 10 11 13 14 15 13 9 8 9 11 10 11 16 18 16 17 19 17 12 12 14 13 13 15
4 1 4 3 2 4 5 5 6 9 8 7 7 6 5 7 5 4 4 3 5 8 8 10 9 5 4 8 11 11 12 14 13 12 10 8 9 13 14 13 12 12 12 12 12 12 12 13 14 18 20 22 24 24 19 15 13 10 14 15 13 12 13 12 14 15 14 12 10 9 9 11 12 11 12 14 15 16 18 16 10 8 11 11 11 13
4 3 2 4 3 4 7 9 6 5 7 5 5 5 2 7 7 6 6 5 5 8 6 5 5 5 5 9 12 12 12 13 11 9 8 7 9 13 13 12 12 11 11 11 12 12 12 12 15 19 21 22 24 26 26 26 25 21 15 14 13 13 14 13 14 15 14 12 12 12 13 13 14 13 11 10 12 15 16 17 16 13 11 11 11 12
4 5 3 3 2 2 5 7 6 5 5 2 6 5 4 7 8 10 9 8 8 8 7 7 8 8 7 9 11 11 11 10 7 6 5 6 7 9 11 11 10 9 10 10 10 11 12 13 17 20 23 24 25 27 32 33 30 30 26 16 12 13 14 13 13 14 14 13 12 10 9 9 8 8 9 9 12 15 17 18 18 16 13 12 13 13
4 5 3 3 4 1 2 5 5 2 1 2 6 6 10 10 11 13 11 10 11 11 11 12 11 10 10 10 10 10 10 9 7 6 6 5 5 5 8 9 9 9 9 8 8 9 11 14 17 20 23 25 26 29 35 36 34 34 34 29 23 19 17 15 13 12 12 12 11 11 11 11 8 7 8 10 11 13 13 13 14 13 12 13 14 13
5 4 3 2 3 2 2 3 3 3 1 2 5 8 8 7 8 10 9 9 7 8 11 11 10 10 12 12 10 10 10 9 8 7 5 5 5 5 6 6 7 8 8 7 8 9 12 15 17 20 23 25 28 31 31 32 34 34 33 32 32 29 26 24 20 15 13 10 8 10 15 19 19 16 15 14 13 11 11 12 11 11 11 12 13 12
5 3 2 2 1 2 3 3 3 3 2 3 4 6 5 5 5 2 4 4 5 5 10 11 11 11 11 12 11 10 10 10 9 5 3 5 6 7 8 8 9 9 10 11 12 12 15 18 19 21 23 26 29 30 29 29 32 33 31 31 31 31 31 32 30 26 23 21 18 13 9 12 18 20 20 19 18 16 14 14 14 13 12 12 13 12
4 4 2 2 1 2 5 3 2 2 1 1 3 7 5 5 8 5 4 3 3 3 6 9 11 11 11 12 11 9 7 8 7 2 3 4 6 8 9 11 12 13 13 14 15 15 17 20 21 21 22 24 25 26 26 27 29 31 30 29 29 30 31 31 31 30 30 29 27 25 22 17 11 8 9 12 15 15 15 15 15 15 14 13 13 13
6 3 4 4 1 2 4 3 2 2 1 1 4 9 5 5 8 6 4 3 1 2 5 6 8 8 9 10 9 7 6 7 5 3 4 5 7 8 8 8 10 12 13 13 13 14 15 17 17 17 19 20 20 20 21 22 25 27 27 26 27 28 28 28 27 26 26 26 25 24 24 23 21 18 14 9 3 5 9 11 11 12 13 13 13 13
8 5 4 4 2 2 3 3 2 2 1 3 5 8 5 4 5 3 4 1 1 3 4 5 6 5 5 5 5 5 6 6 6 5 5 6 7 8 9 9 9 10 10 9 9 9 11 13 15 15 17 18 17 17 17 18 19 22 23 22 24 25 25 24 23 22 21 21 21 20 21 21 21 20 19 16 14 9 3 3 7 10 12 12 12 13
4 3 2 3 2 3 4 3 2 1 2 4 6 8 6 2 3 3 2 2 2 5 4 5 7 5 5 6 6 5 5 6 7 7 8 9 9 10 13 15 15 15 15 15 15 14 14 16 17 18 18 17 17 17 17 16 18 20 20 20 21 21 20 20 19 19 19 18 18 19 19 19 19 19 18 18 16 14 10 7 2 5 9 9 10 11
1 2 3 2 1 2 3 3 2 1 3 6 6 6 4 3 3 2 1 1 5 7 7 9 9 8 8 9 8 7 8 9 10 9 9 9 8 10 14 16 17 17 17 18 19 19 18 17 17 18 19 17 17 17 16 16 17 18 18 19 20 18 17 17 17 18 17 17 17 17 17 17 16 16 17 17 17 16 14 12 9 6 3 5 7 7
1 1 2 2 1 2 3 2 2 1 4 7 5 4 5 3 4 4 4 6 7 8 9 10 9 9 10 10 10 10 10 10 10 10 9 9 8 10 14 16 15 16 17 17 17 17 17 16 15 16 18 17 16 16 15 15 15 15 15 17 17 15 15 15 15 15 14 14 14 14 14 14 14 14 15 16 16 17 16 15 14 12 9 8 9 10
3 2 2 1 2 1 3 2 2 2 3 7 6 4 3 4 4 6 7 7 7 7 8 8 8 8 9 10 10 10 9 9 8 8 7 7 7 9 13 14 13 14 15 15 14 13 13 13 13 14 15 15 14 14 13 14 13 13 14 15 14 13 14 14 13 14 13 13 14 14 14 14 14 14 15 16 16 17 17 17 17 15 14 13 11 13
3 5 5 3 3 3 4 4 4 4 4 6 6 5 6 9 9 8 9 7 6 6 6 6 7 8 9 10 9 8 8 7 7 7 6 6 6 8 11 11 10 10 11 11 11 10 10 10 11 12 12 12 12 11 11 12 12 12 13 14 13 13 14 14 14 14 14 15 15 16 16 16 15 15 16 17 17 17 18 18 18 18 18 17 14 12
6 8 7 5 5 7 6 6 6 6 6 6 7 6 8 9 8 8 9 8 7 7 7 7 7 7 7 9 8 7 6 6 6 6 6 5 5 8 10 9 7 7 8 7 8 8 8 7 9 10 10 10 10 9 9 9 9 10 10 11 11 11 12 12 13 14 15 16 16 17 17 17 17 17 18 18 18 18 18 19 19 20 19 18 17 15
4 6 5 4 5 5 4 4 5 6 6 6 7 7 8 9 8 7 8 7 7 7 7 7 8 8 8 8 7 6 6 6 5 4 4 5 6 7 9 8 7 7 7 7 7 8 7 7 7 7 7 8 8 7 8 8 9 10 10 10 12 12 11 10 11 12 14 15 16 16 16 16 17 18 18 19 19 19 20 20 20 21 21 20 19 17
1 4 5 4 4 5 5 5 6 6 6 6 6 6 6 7 7 7 6 6 6 6 6 7 8 7 6 6 7 6 6 6 6 4 3 5 6 8 9 9 9 9 9 7 6 5 4 3 3 4 6 8 10 10 11 12 14 15 15 15 16 16 15 14 14 13 14 15 16 16 16 16 18 19 20 20 19 19 19 20 22 23 24 23 22 19
3 4 4 4 6 6 6 7 7 6 6 6 6 6 5 5 6 6 6 6 6 6 6 7 9 9 7 7 7 6 6 6 7 6 5 5 7 9 11 11 10 9 6 4 4 4 3 4 6 8 12 14 15 15 16 16 17 17 17 18 18 18 19 20 20 18 17 17 18 18 19 19 19 20 21 22 22 21 19 19 22 23 24 24 23 21
5 5 4 5 6 4 4 6 7 5 5 5 6 7 6 6 7 6 6 6 6 6 5 6 8 11 10 9 8 7 6 6 6 7 6 6 9 11 10 8 7 6 5 5 9 12 13 14 14 15 16 17 16 16 16 16 17 17 18 18 18 18 19 21 21 21 21 20 20 21 22 22 22 22 22 23 25 25 22 21 23 23 21 22 23 23
4 4 4 5 5 4 5 7 6 5 5 4 5 6 5 5 6 6 7 7 7 7 7 6 7 8 7 8 11 11 7 6 8 8 7 8 10 10 7 6 6 7 9 13 16 17 17 18 17 16 15 15 14 15 16 16 16 17 17 17 17 17 17 19 19 20 20 20 21 22 23 23 22 23 23 23 25 26 25 25 26 25 22 22 23 23
Wind_Direction
169 202 226 219 224 226 224 221 231 247 249 255 266 273 268 260 254 252 248 239 218 191 200 189 178 203 217 229 251 255 264 271 168 148 133 143 148 126 104 104 114 113 121 130 124 125 125 127 132 142 156 156 143 145 147 147 151 152 152 152 151 152 152 149 146 142 138 136 138 140 139 134 130 133 137 135 145 159 158 154 156 160 163 163 166 169
175 202 228 224 223 229 232 225 225 241 254 262 270 280 284 280 274 275 267 246 214 175 191 177 168 198 207 219 236 218 203 206 144 139 136 147 149 121 111 115 120 119 127 127 123 131 132 133 140 149 163 162 150 153 153 152 154 154 154 154 151 153 155 153 149 143 140 138 140 142 137 132 128 126 127 135 151 157 146 138 142 147 149 150 149 148
197 228 229 224 227 229 236 237 228 235 248 256 262 273 281 282 293 290 278 255 200 153 184 176 170 202 205 212 227 186 166 182 179 158 146 151 138 117 117 119 120 121 126 128 134 143 139 139 145 153 168 169 157 155 155 155 157 157 157 155 154 157 157 153 148 145 144 143 146 144 137 134 134 130 128 134 144 149 144 140 138 134 135 136 132 128
200 232 223 221 231 233 240 240 219 224 256 246 241 256 269 272 291 309 301 299 131 115 139 161 174 228 214 227 252 211 188 188 174 133 109 116 115 115 123 123 126 128 128 132 136 140 139 141 150 159 169 170 161 158 158 159 161 160 159 157 158 160 157 152 148 148 147 147 151 149 144 141 139 138 139 138 141 145 146 149 148 140 136 133 130 128
231 233 210 213 231 234 245 244 208 175 272 270 241 239 260 272 285 312 316 335 8 37 77 97 46 327 293 297 295 261 186 159 146 106 86 89 104 117 121 119 126 133 134 137 136 143 151 153 160 166 169 169 169 167 164 163 163 163 161 159 161 161 158 153 151 150 147 147 146 142 140 138 136 138 142 144 146 146 147 151 151 149 149 145 140 137
241 242 204 205 221 228 238 242 206 170 244 296 258 241 251 264 281 302 305 333 7 339 10 87 69 303 307 302 279 293 118 139 127 96 93 92 102 112 113 113 123 132 135 139 145 156 165 165 166 169 171 170 172 173 169 166 165 164 162 161 163 162 159 157 153 148 145 145 142 138 137 137 139 143 146 148 147 146 148 147 142 139 143 145 139 130
238 243 224 205 208 220 226 228 189 154 199 274 251 255 264 264 268 275 291 318 106 226 261 100 127 250 307 298 265 263 142 131 85 88 102 106 110 114 118 125 129 131 134 141 152 161 165 164 165 168 172 170 171 175 175 170 167 167 165 164 163 162 161 159 154 149 148 147 144 144 143 142 144 147 149 149 146 148 150 144 137 131 130 133 132 127
216 231 242 219 199 203 197 204 192 160 187 239 231 251 266 269 261 236 249 281 227 176 335 101 131 177 288 270 257 213 150 116 92 100 111 113 121 126 127 128 126 134 142 146 157 168 167 161 160 164 171 175 174 175 178 176 171 169 168 166 164 163 162 160 154 151 152 151 149 147 145 144 147 149 149 148 147 149 149 141 134 131 129 127 126 126
204 212 230 228 208 186 167 193 198 177 203 237 228 240 259 270 270 248 209 249 246 90 336 269 133 142 265 266 273 220 163 132 116 123 124 123 132 137 133 129 131 143 148 149 161 173 169 158 160 164 171 179 178 173 177 180 175 171 170 168 164 162 162 159 154 151 153 153 151 148 147 147 147 144 145 147 147 148 148 144 138 137 133 126 122 124
215 194 196 207 220 216 206 206 203 196 210 229 231 244 268 273 276 268 208 220 95 108 258 262 149 149 272 285 299 248 190 154 131 133 136 138 142 145 142 137 143 145 141 150 163 173 171 160 161 165 170 176 179 175 177 180 177 172 171 168 164 162 160 159 157 154 153 154 154 153 151 148 143 141 143 145 146 149 151 147 141 138 133 131 131 130
257 215 183 195 206 193 204 224 224 219 213 218 226 237 264 271 280 276 203 140 77 177 236 243 204 171 258 288 312 280 235 156 132 132 139 140 139 143 138 130 140 139 138 154 160 168 177 163 156 163 168 170 175 178 177 177 176 173 171 169 164 163 161 161 160 157 157 160 160 158 154 148 145 144 145 147 149 152 151 145 141 138 135 134 133 130
244 246 204 189 182 171 200 229 239 230 213 210 215 195 240 281 311 330 340 105 121 246 235 208 212 193 205 281 339 355 335 114 133 139 139 141 141 140 131 125 136 135 139 154 154 163 179 163 152 163 167 166 171 178 176 173 173 174 173 168 164 166 166 165 163 160 165 167 161 156 154 152 151 151 151 151 153 153 150 146 143 142 139 135 133 132
236 246 222 177 115 160 207 229 258 251 213 191 196 160 132 309 324 325 291 192 188 239 231 193 198 212 192 271 28 33 19 60 127 138 140 150 151 144 135 128 134 135 138 149 151 156 173 168 159 168 169 166 171 179 176 170 170 173 173 169 167 169 170 170 167 167 171 170 159 154 155 155 155 156 156 155 154 153 153 153 150 147 143 138 135 135
260 267 247 200 176 186 209 212 232 250 215 176 177 150 150 162 154 255 259 231 213 244 239 204 195 221 202 63 47 56 49 66 111 132 142 151 151 142 133 128 134 131 124 135 145 148 161 171 169 173 173 166 169 179 177 169 167 168 170 171 172 172 173 173 173 174 175 169 159 155 156 158 158 157 157 156 156 156 159 159 153 148 146 142 139 137
228 252 245 229 189 175 202 215 210 221 214 205 189 152 166 168 159 208 223 182 223 265 278 229 194 188 183 155 69 78 71 73 95 118 130 133 130 126 123 127 129 108 81 80 93 119 160 175 174 171 169 160 162 172 171 162 162 165 170 176 178 175 173 175 178 180 175 165 159 156 158 160 159 157 156 157 160 161 162 159 154 152 149 145 144 142
223 235 215 213 207 179 189 214 222 250 307 270 242 172 199 193 155 156 199 186 171 52 332 296 122 1 176 177 77 83 81 78 85 92 102 108 110 113 117 121 113 100 90 90 99 146 171 168 167 166 164 154 148 150 154 160 167 175 180 184 183 178 175 178 180 179 171 164 162 159 158 158 157 157 157 158 162 163 161 159 157 156 151 148 149 146
221 256 238 208 207 194 186 197 201 190 208 289 295 218 225 195 143 132 241 274 82 85 276 145 93 342 77 107 69 77 84 85 91 93 97 100 103 107 109 107 106 116 128 130 147 172 164 142 155 171 167 142 129 132 158 180 183 186 187 187 184 182 183 184 183 178 172 168 166 160 157 156 157 160 159 160 164 164 161 162 161 157 153 152 151 147
212 257 292 232 207 217 196 187 205 190 157 155 231 229 261 28 91 110 123 6 49 113 259 155 143 167 138 140 107 77 82 89 98 103 101 96 101 107 105 107 115 130 141 139 146 150 125 124 150 173 162 125 127 147 172 185 190 191 189 185 183 186 187 185 186 181 174 170 166 159 156 158 160 161 162 163 164 161 161 164 163 158 157 156 153 148
214 248 297 314 203 261 222 177 213 228 172 174 205 209 34 52 32 14 105 137 144 153 296 309 147 137 110 167 141 123 127 122 108 105 108 107 109 115 119 122 125 129 134 129 130 132 126 128 136 150 149 122 130 156 173 180 196 198 190 178 176 183 185 186 186 179 172 170 166 163 159 160 164 164 163 163 161 161 163 165 164 162 161 158 156 150
204 169 283 297 266 346 323 180 203 251 227 214 203 131 100 135 154 184 149 153 149 166 249 336 23 338 288 305 197 174 165 143 132 118 111 118 124 132 139 137 133 136 138 134 134 139 132 125 128 137 139 127 127 153 176 186 203 205 194 183 178 179 178 181 182 174 166 159 159 162 156 151 163 166 163 160 158 158 162 164 163 164 161 158 157 151
355 133 208 290 336 57 340 286 260 354 342 284 253 165 170 157 126 115 165 160 136 156 192 121 9 271 279 308 239 176 159 141 138 129 118 119 118 124 135 134 137 140 137 137 140 142 138 130 132 134 122 119 133 151 187 200 199 199 198 193 186 183 178 178 177 169 160 153 151 153 142 130 145 155 155 156 155 151 153 159 163 163 160 158 159 153
9 89 195 256 336 61 167 3 9 27 47 32 1 4 347 134 110 102 328 300 73 128 187 154 151 282 325 340 314 156 135 119 117 117 111 93 82 86 97 118 129 136 139 141 143 144 142 132 131 137 132 123 129 137 150 163 151 161 193 199 194 196 193 186 177 163 152 152 148 141 131 125 134 144 146 147 151 151 150 153 159 162 161 159 159 156
111 96 253 237 228 199 111 35 19 29 55 61 46 25 13 20 70 129 180 238 16 111 210 115 108 314 355 20 7 358 89 102 90 82 85 69 51 49 34 19 82 114 122 123 135 142 132 131 137 145 143 130 129 141 154 155 148 159 180 183 192 211 208 203 195 173 145 138 135 130 126 121 122 135 144 146 152 162 167 164 162 163 164 162 161 159
33 9 291 299 305 331 16 28 30 34 43 53 46 32 27 14 356 162 170 165 145 182 150 71 86 282 347 18 28 13 21 52 60 57 60 54 42 41 23 355 4 69 93 92 105 117 110 120 134 133 123 118 122 141 158 162 161 164 167 168 179 196 202 205 207 192 172 162 155 147 135 125 123 130 141 154 160 167 181 180 171 166 166 166 164 161
5 336 322 24 345 346 358 356 11 26 36 57 43 32 32 22 17 19 44 72 91 172 138 111 157 255 342 359 40 54 41 38 49 54 53 51 50 52 43 21 10 11 23 65 87 100 109 115 122 118 113 109 110 119 130 139 149 157 159 162 167 167 170 180 185 184 184 178 169 164 161 168 164 146 149 166 170 179 195 187 176 173 174 172 168 164
165 288 308 126 135 146 262 262 243 5 34 48 45 45 39 25 32 54 63 59 47 200 119 119 179 214 12 19 38 56 68 64 57 57 55 50 48 49 55 53 41 20 358 3 65 95 114 124 124 121 115 113 110 108 111 116 126 137 140 144 149 149 154 167 171 171 180 183 180 181 183 191 188 169 167 172 172 184 196 188 179 179 178 175 170 167
121 320 294 255 183 179 191 197 184 150 78 59 46 50 49 36 45 76 93 88 194 225 51 97 146 128 101 73 56 33 53 73 67 64 64 55 43 35 36 46 56 53 8 341 13 62 75 93 112 117 113 113 112 106 102 99 104 115 117 121 136 145 150 158 160 162 173 185 192 195 190 187 190 184 180 178 172 177 188 188 185 180 175 176 173 172
73 8 283 265 255 235 194 152 142 117 80 73 63 56 56 52 56 68 76 236 210 113 44 61 123 114 134 130 88 51 53 71 69 68 75 78 71 57 54 53 48 52 33 356 4 28 38 46 57 73 93 104 104 101 104 105 107 113 110 116 134 143 142 143 145 149 157 172 190 196 186 177 184 184 181 180 170 163 171 186 191 185 179 181 181 180
99 244 274 267 269 283 79 115 120 113 99 85 77 69 64 59 62 73 53 293 155 114 128 127 102 92 85 75 70 65 69 68 61 59 64 73 75 65 62 64 54 53 52 31 23 25 30 40 36 29 55 88 100 101 107 115 117 120 121 127 139 139 136 136 133 134 142 156 180 188 183 180 184 180 180 182 172 158 148 165 184 188 189 190 187 182
116 228 307 328 294 276 99 97 90 91 111 105 93 87 82 71 65 73 51 29 68 88 107 103 86 69 60 64 60 60 69 70 60 52 51 54 62 63 57 53 49 48 49 47 47 42 37 39 34 29 37 58 99 110 121 127 124 130 136 134 132 122 119 129 133 127 132 150 172 178 176 180 180 178 184 187 178 168 163 165 177 184 187 185 180 176
69 339 311 355 334 304 86 94 85 75 77 94 96 96 96 84 58 51 40 33 64 77 83 90 86 71 58 70 66 57 61 67 60 49 47 46 55 66 64 57 51 47 43 42 41 40 41 42 37 36 35 29 33 46 70 110 118 135 140 126 117 120 114 116 128 126 121 136 162 175 179 181 173 171 182 189 186 180 180 182 181 180 182 181 178 177
75 12 316 25 31 336 17 43 72 81 67 59 59 45 72 89 71 46 34 34 97 107 91 85 90 99 106 87 72 57 55 62 60 54 51 44 51 64 66 61 57 51 45 42 37 34 36 39 38 38 34 28 27 24 23 35 51 88 129 132 124 126 128 119 118 122 122 129 142 149 159 170 168 161 169 185 192 189 190 196 200 193 187 186 187 187
111 115 29 37 44 345 2 15 28 63 68 50 357 331 58 109 102 81 50 42 99 121 112 99 105 116 118 100 88 76 67 65 62 54 49 45 56 66 68 64 60 55 47 42 39 36 33 31 35 36 33 32 30 26 26 31 32 41 80 127 137 128 123 115 112 121 129 136 144 147 150 158 161 159 160 177 188 186 189 201 211 215 205 192 192 193
121 118 108 85 91 305 345 32 38 38 61 30 298 315 77 101 95 82 61 45 66 85 93 100 100 93 87 89 95 96 88 83 81 69 59 56 59 65 72 72 66 58 52 44 40 38 32 30 34 36 34 33 32 34 37 38 35 38 51 78 114 122 122 119 119 123 120 121 133 140 143 152 159 161 161 169 178 182 187 195 204 211 207 194 193 192
119 109 111 130 138 219 332 52 63 59 70 293 309 19 69 85 83 76 63 51 66 80 86 89 95 100 101 101 105 107 104 102 97 83 72 73 71 68 71 70 64 58 52 41 37 35 31 31 33 33 33 31 32 38 42 41 41 43 48 56 66 77 90 100 110 120 119 123 138 140 138 146 157 169 176 178 180 184 190 196 201 207 204 197 196 196
127 121 121 135 133 130 82 67 96 136 134 335 349 20 48 64 65 66 57 38 48 86 97 97 100 106 109 111 112 113 115 111 95 77 74 83 88 86 81 74 68 66 60 49 44 38 36 39 40 37 34 31 32 36 40 41 43 44 45 48 52 55 59 64 67 76 89 101 128 149 158 166 171 173 177 180 182 186 196 202 205 208 205 202 204 203
130 123 106 120 127 119 112 81 81 119 96 15 2 352 4 15 354 19 92 44 15 75 107 115 119 118 117 119 121 126 125 105 83 70 82 95 95 94 91 86 80 78 77 72 66 58 50 48 45 39 37 34 31 30 32 36 41 44 41 40 43 45 46 46 43 40 44 46 48 60 99 156 173 176 177 178 179 183 188 191 194 194 190 190 196 198
115 125 133 143 145 94 113 106 85 129 140 45 331 313 333 12 342 340 96 77 351 56 106 125 130 131 134 134 138 147 129 91 78 107 165 131 119 112 103 100 99 97 94 88 82 74 64 56 49 42 39 38 33 27 25 28 34 40 39 34 36 39 40 37 32 29 29 29 32 37 42 50 76 118 154 173 184 189 186 181 184 189 188 186 188 189
43 60 90 100 60 59 111 124 114 124 156 260 298 303 325 4 335 341 80 98 265 103 94 105 118 126 135 140 146 143 112 91 99 161 179 163 150 139 134 137 134 124 115 106 98 91 82 73 66 58 52 52 46 34 28 27 30 37 38 30 28 32 31 26 23 23 23 21 23 27 30 34 39 42 46 55 81 179 183 179 180 182 183 185 185 183
24 5 38 60 29 33 84 96 87 90 239 266 287 298 313 340 335 22 91 117 180 127 106 107 115 113 109 112 108 88 89 109 122 122 122 123 117 110 108 113 118 113 101 88 83 88 86 75 68 64 58 57 53 43 37 35 36 40 42 35 28 26 24 18 14 15 15 13 14 17 18 20 22 23 26 27 22 24 54 162 188 187 186 188 191 190
37 358 26 78 88 64 74 92 90 69 272 275 287 290 291 319 20 67 129 228 99 95 101 111 112 104 89 88 89 82 83 97 103 97 88 81 75 74 75 77 80 77 66 55 50 54 61 57 52 53 54 52 46 39 36 38 36 36 37 36 32 24 18 15 12 12 10 5 3 3 2 2 5 7 9 7 2 4 11 16 29 187 194 200 201 198
40 355 18 49 86 66 76 95 96 76 293 290 291 302 332 48 82 101 159 112 84 85 86 87 86 85 85 85 87 89 84 78 78 77 71 67 64 59 55 57 60 58 53 49 44 44 50 51 45 45 47 48 44 39 36 34 31 27 26 28 26 17 10 9 9 8 5 2 358 356 353 349 349 352 353 352 350 349 347 349 352 343 293 253 237 225
356 65 54 30 3 75 85 73 90 101 323 329 344 356 4 46 124 132 97 77 75 78 79 76 71 71 78 81 80 81 80 75 72 71 66 62 64 63 57 53 51 51 53 49 39 36 43 44 40 42 44 43 42 39 36 35 31 28 26 24 19 12 6 5 5 4 4 3 359 355 349 342 339 339 338 336 338 339 336 333 332 329 317 298 277 265
356 37 93 19 331 63 96 70 78 96 355 4 45 68 24 41 84 98 92 80 66 69 77 79 74 70 76 82 83 81 78 75 75 77 74 65 62 67 67 59 53 56 61 56 42 35 38 38 37 41 40 36 37 37 35 34 34 30 27 21 15 12 10 6 3 2 4 3 360 356 352 344 336 334 333 332 331 331 328 325 322 318 310 302 289 270
47 84 96 72 36 65 102 110 101 92 45 33 56 69 56 55 61 73 86 83 66 65 71 76 76 76 78 81 80 77 78 78 75 77 83 81 72 76 79 73 65 63 65 63 53 39 34 33 36 39 34 26 26 28 28 29 29 25 21 14 5 4 4 0 359 0 360 358 355 352 350 346 341 337 333 331 330 330 330 327 321 316 309 300 284 265
110 106 95 88 91 84 84 94 96 89 74 62 61 58 56 58 60 66 74 73 65 62 62 63 63 64 73 83 85 82 83 88 89 88 94 100 96 95 97 96 89 77 69 70 64 43 32 34 35 33 28 19 18 19 19 22 23 16 8 0 355 356 357 356 358 358 355 352 347 343 342 341 340 337 334 331 328 326 326 327 324 321 316 307 290 271
110 104 85 101 128 110 90 100 103 98 96 88 76 68 62 61 60 62 68 76 76 73 74 77 72 63 61 71 84 89 84 84 93 106 122 125 116 106 101 97 91 81 71 70 60 35 26 34 36 31 22 9 6 10 10 13 18 13 4 359 358 357 354 351 352 353 354 353 348 344 342 339 335 335 335 334 331 327 323 322 322 319 317 315 308 291
69 94 79 79 95 95 105 122 117 106 103 97 88 82 77 74 76 79 81 86 87 79 75 78 82 79 65 61 78 94 90 70 56 52 86 105 99 92 85 75 65 56 50 50 41 16 8 21 23 20 21 15 16 21 22 22 23 19 13 10 8 7 6 4 358 355 354 351 348 347 346 344 343 344 343 341 340 337 332 329 326 321 314 310 308 304
25 76 94 97 94 101 121 130 127 116 105 96 95 99 101 102 102 98 92 91 90 83 79 83 88 88 76 58 58 76 91 81 51 34 47 82 87 79 69 57 45 33 21 15 5 352 6 32 33 37 39 34 29 27 24 20 17 12 9 6 3 4 8 8 6 6 4 357 355 357 358 359 357 354 351 351 350 347 343 341 338 331 321 313 309 305
47 70 98 110 105 114 132 131 131 126 111 108 118 125 132 134 122 110 96 87 84 81 79 82 86 87 85 76 66 68 86 91 64 42 46 75 84 76 63 44 18 352 351 27 37 36 39 42 40 39 37 32 27 23 19 14 8 3 0 359 357 357 1 2 3 6 6 3 3 3 2 1 360 354 350 350 351 350 348 348 348 345 339 334 330 323
75 97 106 110 115 115 111 114 115 108 102 110 113 107 98 97 106 106 94 83 81 80 75 73 82 89 89 80 75 73 68 64 65 59 49 62 75 70 46 14 360 9 37 49 47 42 38 34 31 31 29 25 20 15 10 6 2 358 355 353 351 352 356 359 0 360 359 359 359 357 357 357 356 353 349 345 345 348 349 347 347 347 347 348 346 338